Location: Newark
(34.3481°N, 134.0494°E)
Time: 15:22:13
(UTC+00:00)

Vanguard 3 - Pass Details

Date: 31 January 2020
Orbit: 508 x 3263 km, 33.3° (Epoch: 25 February)

Event Time Altitude Azimuth Distance (km) Brightness Sun altitude
Rises 08:52:55 0° 265° (W) 6,744 13.9 -5.0°
Reaches altitude 10° 08:57:04 10° 266° (W) 5,929 13.2 -5.8°
Maximum altitude 09:17:04 87° 180° (S) 3,198 10.1 -9.7°
Enters shadow 09:33:21 13° 93° (E) 5,031 10.6 -13.0°
Drops below altitude 10° 09:34:12 10° 93° (E) 5,205 - -13.2°
Sets 09:37:35 0° 94° (E) 5,926 - -13.9°
